Kezdőlap
METAR-TAF:

METAR-TAF

Repülőterek :

Tripoli, Líbia

Mitiga International Airport

földrajzi szélesség: 32-54N, földrajzi hosszúság: 13-17E, magasság: 11 m

Jelenlegi meteorológiai megfigyelések

A jelentés 56 perccel ezelõtt készült, 00:50 UTC
Délnyugati szél 3 kt
Hőmérséklet 13°C
Páratartalom 82%
Légköri nyomás 1021 hPa
Látótávolság: 6000 m

METAR: HLLM 230050Z 22003KT 6000 NSC 13/10 Q1021

Idő: 03:46 (01:46 UTC)

Előrejelzés

A jelentés 20 órával és 46 perccel ezelõtt készült, 05:00 UTC
Az előrejelzés 22-én 06 óra UTC és 23-én 06 óra UTC között érvényes
Nyugat-délnyugati szél 10 kt
Látótávolság: 8000 m
Szórványos felhőzet 2500 lábon

TAF: HLLM 220500Z 2206/2306 27015KT 8000 SCT025 BECMG2212/2214 34015KT BECMG2218/2220 24010KT

Meteorológiai megfigyelések és előrejelzések több, mint 4000 repülőtéren (METAR és TAF jelentéseket).

A térképen piros és sárga pontok jelzik az elérhető meteorológiai állomásokat.

Mozgassa az egeret a pont fölött, hogy megjelenjen az állomás neve.

Azután kattintson az időjárási megfigyelések és előrejelzések megtekintéséhez.

A térkép megváltoztatása: kattintson a fekete keresztel jelölt zöld gombra ráközelítéshez, a vonallal jelölt zöld gombra távolításhoz, vagy a zöld nyilakra a szomszédos térképek eléréséhez.


METAR-TAF: